{"data":{"norad_id":64190,"epoch":"2026-09-20T06:28:58.260864Z","epoch_age_seconds":160295,"freshness":"FRESH","line1":"1 64190U 25113W   26263.27011876  .00016713  00000+0  50465-3 0  9993","line2":"2 64190  53.1598 266.7976 0001719  78.8385 281.2811 15.34402115 74867","mean_motion":15.34402115,"eccentricity":0.0001719,"inclination_deg":53.1598,"raan_deg":266.7976,"arg_perigee_deg":78.8385,"mean_anomaly_deg":281.2811,"bstar":0.00050465,"rev_number":7486,"period_min":93.847628722801,"perigee_km":461.52101463192,"apogee_km":463.8728933453,"semimajor_km":6840.8339539886,"source":"CELESTRAK","updated_at":"2026-09-21T09:00:35.268036Z"}}